{"data":{"norad_id":51809,"epoch":"2026-09-19T06:42:01.397376Z","epoch_age_seconds":157093,"freshness":"FRESH","line1":"1 51809U 22017AT  26262.27918284  .00000453  00000+0  25121-4 0  9990","line2":"2 51809  53.1605 177.7454 0001587  86.8910 273.2274 15.33544550253454","mean_motion":15.3354455,"eccentricity":0.0001587,"inclination_deg":53.1605,"raan_deg":177.7454,"arg_perigee_deg":86.891,"mean_anomaly_deg":273.2274,"bstar":2.5121e-5,"rev_number":25345,"period_min":93.900108738282,"perigee_km":464.16095469955,"apogee_km":466.33304478107,"semimajor_km":6843.3839997403,"source":"CELESTRAK","updated_at":"2026-09-20T09:00:39.942968Z"}}